| time (UTC) | temp F | wind direction | speed knots | gust knots | rain 1hr in | rain 24hr in | rain mn in | humidity % | barometer mb |
| 20260506071405 | 45 | 7 | 4.3 | 8.7 | 0.00 | 0.00 | 0.00 | 83 | 1009.3 |
| 20260506070905 | 46 | 7 | 4.3 | 10.4 | 0.00 | 0.00 | 0.00 | 83 | 1009.2 |
| 20260506070405 | 46 | 7 | 4.3 | 10.4 | 0.00 | 0.00 | 0.00 | 83 | 1009.4 |
| 20260506062405 | 47 | 7 | 0.0 | 2.6 | 0.00 | 0.00 | 0.00 | 83 | 1010.9 |
| 20260506061904 | 47 | 355 | 0.0 | 4.3 | 0.00 | 0.00 | 0.00 | 83 | 1010.9 |
| 20260506061405 | 48 | 353 | 0.0 | 6.1 | 0.00 | 0.00 | 0.00 | 83 | 1011.1 |
| 20260506060905 | 48 | 10 | 0.0 | 0.0 | 0.00 | 0.00 | 0.00 | 83 | 1010.9 |
| 20260506060405 | 48 | 350 | 0.0 | 0.0 | 0.00 | 0.00 | 0.00 | 83 | 1010.7 |
| 20260506051405 | 49 | 355 | 0.9 | 5.2 | 0.00 | 0.00 | 0.00 | 83 | 1010.4 |
| 20260506050906 | 49 | 358 | 1.7 | 7.8 | 0.00 | 0.00 | 0.00 | 83 | 1010.3 |
| 20260506050405 | 49 | 354 | 0.9 | 5.2 | 0.00 | 0.00 | 0.00 | 83 | 1010.5 |
| 20260506044905 | 49 | 9 | 1.7 | 8.7 | 0.00 | 0.00 | 0.00 | 83 | 1009.9 |
| 20260506044405 | 49 | 12 | 1.7 | 7.0 | 0.00 | 0.00 | 0.00 | 83 | 1009.9 |
| 20260506043905 | 49 | 19 | 2.6 | 6.1 | 0.00 | 0.00 | 0.00 | 83 | 1010.0 |
| 20260506043405 | 49 | 1 | 0.9 | 10.4 | 0.00 | 0.00 | 0.00 | 83 | 1010.1 |
| 20260506042905 | 49 | 3 | 4.3 | 7.0 | 0.00 | 0.00 | 0.00 | 83 | 1010.1 |
| 20260506042405 | 49 | 333 | 0.0 | 6.1 | 0.00 | 0.00 | 0.00 | 83 | 1010.1 |
| 20260506041905 | 49 | 328 | 1.7 | 4.3 | 0.00 | 0.00 | 0.00 | 83 | 1010.1 |
| 20260506040904 | 49 | 358 | 0.0 | 0.0 | 0.00 | 0.00 | 0.00 | 83 | 1009.6 |
| 20260506040405 | 49 | 0 | 1.7 | 7.0 | 0.00 | 0.00 | 0.00 | 83 | 1009.6 |
| 20260506035905 | 49 | 33 | 1.7 | 8.7 | 0.00 | 0.00 | 0.00 | 83 | 1009.6 |
| 20260506035405 | 49 | 8 | 4.3 | 8.7 | 0.00 | 0.00 | 0.00 | 83 | 1009.1 |
| 20260506034905 | 49 | 13 | 0.9 | 2.6 | 0.00 | 0.00 | 0.00 | 83 | 1009.6 |
| 20260506034405 | 49 | 20 | 0.9 | 5.2 | 0.00 | 0.00 | 0.00 | 83 | 1009.4 |
| 20260506033905 | 49 | 0 | 0.0 | 2.6 | 0.00 | 0.00 | 0.00 | 83 | 1009.4 |
| 20260506033405 | 49 | 14 | 0.0 | 5.2 | 0.00 | 0.00 | 0.00 | 83 | 1009.4 |
| 20260506031904 | 50 | 355 | 0.9 | 7.0 | 0.00 | 0.00 | 0.00 | 83 | 1009.6 |
| 20260506031405 | 50 | 317 | 0.0 | 6.1 | 0.00 | 0.00 | 0.00 | 83 | 1009.7 |
| 20260506030905 | 50 | 19 | 1.7 | 7.0 | 0.00 | 0.00 | 0.00 | 83 | 1009.5 |
| 20260506030404 | 50 | 10 | 1.7 | 5.2 | 0.00 | 0.00 | 0.00 | 83 | 1009.2 |
| 20260506025905 | 50 | 25 | 0.0 | 6.1 | 0.00 | 0.00 | 0.00 | 83 | 1009.0 |
| 20260506025405 | 50 | 6 | 1.7 | 7.0 | 0.00 | 0.00 | 0.00 | 83 | 1008.8 |
| 20260506024906 | 50 | 8 | 3.5 | 7.8 | 0.00 | 0.00 | 0.00 | 83 | 1008.7 |
| 20260506024406 | 50 | 14 | 0.9 | 7.0 | 0.00 | 0.00 | 0.00 | 83 | 1008.8 |
| 20260506023904 | 50 | 74 | 0.0 | 0.9 | 0.00 | 0.00 | 0.00 | 83 | 1008.8 |
| 20260506023405 | 50 | 22 | 0.0 | 1.7 | 0.00 | 0.00 | 0.00 | 83 | 1008.9 |
| 20260506022905 | 51 | 19 | 0.0 | 0.0 | 0.00 | 0.00 | 0.00 | 83 | 1008.9 |
| 20260506021405 | 50 | 333 | 0.0 | 1.7 | 0.00 | 0.00 | 0.00 | 83 | 1009.0 |
| 20260506020906 | 51 | 338 | 0.0 | 0.0 | 0.00 | 0.00 | 0.00 | 83 | 1008.7 |
| 20260506020405 | 51 | 352 | 0.0 | 0.0 | 0.00 | 0.00 | 0.00 | 83 | 1008.6 |
| 20260506015904 | 51 | 352 | 0.9 | 6.1 | 0.00 | 0.00 | 0.00 | 83 | 1008.3 |
| 20260506015405 | 51 | 42 | 1.7 | 4.3 | 0.00 | 0.00 | 0.00 | 83 | 1008.0 |
| 20260506014405 | 51 | 32 | 0.0 | 0.0 | 0.00 | 0.00 | 0.00 | 83 | 1008.0 |
| 20260506013905 | 51 | 36 | 0.0 | 0.0 | 0.00 | 0.00 | 0.00 | 83 | 1008.0 |
| 20260506013404 | 51 | 29 | 0.9 | 2.6 | 0.00 | 0.00 | 0.00 | 83 | 1007.9 |
| 20260506012905 | 51 | 15 | 0.0 | 2.6 | 0.00 | 0.00 | 0.00 | 83 | 1007.7 |
| 20260506012405 | 51 | 19 | 3.5 | 7.0 | 0.00 | 0.00 | 0.00 | 83 | 1006.8 |
| 20260506011904 | 51 | 34 | 2.6 | 6.1 | 0.00 | 0.00 | 0.00 | 83 | 1007.1 |
| 20260506010905 | 51 | 9 | 1.7 | 6.1 | 0.00 | 0.00 | 0.00 | 83 | 1008.0 |
| 20260506010406 | 51 | 20 | 0.9 | 7.8 | 0.00 | 0.00 | 0.00 | 83 | 1008.1 |
| 20260506005904 | 51 | 25 | 2.6 | 7.0 | 0.00 | 0.00 | 0.00 | 83 | 1008.1 |
| 20260506005404 | 51 | 19 | 2.6 | 6.1 | 0.00 | 0.00 | 0.00 | 83 | 1008.0 |
| 20260506004905 | 51 | 20 | 2.6 | 5.2 | 0.00 | 0.00 | 0.00 | 83 | 1008.1 |
| 20260506004405 | 51 | 351 | 0.0 | 5.2 | 0.00 | 0.00 | 0.00 | 83 | 1008.0 |
| 20260506003904 | 51 | 16 | 0.0 | 4.3 | 0.00 | 0.00 | 0.00 | 83 | 1007.8 |
| 20260506003404 | 51 | 13 | 2.6 | 5.2 | 0.00 | 0.00 | 0.00 | 83 | 1007.6 |
| 20260506002904 | 51 | 46 | 0.0 | 4.3 | 0.00 | 0.00 | 0.00 | 83 | 1007.7 |
| 20260506002405 | 51 | 83 | 1.7 | 6.1 | 0.00 | 0.00 | 0.00 | 83 | 1007.7 |
| 20260506001905 | 51 | 26 | 0.9 | 7.0 | 0.00 | 0.00 | 0.00 | 83 | 1007.8 |
| 20260506001405 | 52 | 18 | 1.7 | 6.1 | 0.00 | 0.00 | 0.00 | 83 | 1007.6 |
| 20260506000406 | 52 | 18 | 0.9 | 4.3 | 0.00 | 0.00 | 0.00 | 83 | 1007.6 |
| 20260505235905 | 52 | 7 | 0.0 | 0.0 | 0.00 | 0.00 | 0.00 | 83 | 1007.7 |
| 20260505235404 | 52 | 21 | 0.9 | 5.2 | 0.00 | 0.00 | 0.00 | 83 | 1007.7 |
| 20260505234404 | 52 | 0 | 1.7 | 6.1 | 0.00 | 0.00 | 0.00 | 83 | 1007.6 |
| 20260505233405 | 52 | 353 | 0.0 | 6.1 | 0.00 | 0.00 | 0.00 | 83 | 1008.4 |
| 20260505232904 | 52 | 14 | 0.0 | 0.9 | 0.00 | 0.00 | 0.00 | 83 | 1008.2 |
| 20260505232405 | 52 | 10 | 0.9 | 6.1 | 0.00 | 0.00 | 0.00 | 83 | 1008.1 |
| 20260505231905 | 52 | 17 | 2.6 | 5.2 | 0.00 | 0.00 | 0.00 | 83 | 1008.1 |
| 20260505231404 | 52 | 19 | 1.7 | 6.1 | 0.00 | 0.00 | 0.00 | 83 | 1008.1 |
| 20260505230905 | 53 | 7 | 1.7 | 7.8 | 0.00 | 0.00 | 0.00 | 83 | 1008.0 |
| 20260505230405 | 53 | 12 | 1.7 | 7.0 | 0.00 | 0.00 | 0.00 | 83 | 1007.9 |
| 20260505224904 | 53 | 12 | 0.9 | 7.8 | 0.00 | 0.00 | 0.00 | 83 | 1008.2 |
| 20260505224404 | 53 | 21 | 0.9 | 4.3 | 0.00 | 0.00 | 0.00 | 83 | 1008.2 |
| 20260505223905 | 54 | 13 | 0.9 | 5.2 | 0.00 | 0.00 | 0.00 | 83 | 1008.2 |
| 20260505223404 | 54 | 354 | 0.9 | 4.3 | 0.00 | 0.00 | 0.00 | 83 | 1008.1 |
| 20260505222404 | 55 | 33 | 0.0 | 1.7 | 0.00 | 0.00 | 0.00 | 83 | 1007.9 |
| 20260505221905 | 56 | 336 | 0.0 | 4.3 | 0.00 | 0.00 | 0.00 | 83 | 1007.9 |
| 20260505221404 | 56 | 347 | 0.0 | 0.0 | 0.00 | 0.00 | 0.00 | 83 | 1007.9 |
| 20260505220904 | 56 | 342 | 0.0 | 2.6 | 0.00 | 0.00 | 0.00 | 83 | 1007.8 |
| 20260505220405 | 56 | 345 | 1.7 | 6.1 | 0.00 | 0.00 | 0.00 | 83 | 1007.7 |
| 20260505215905 | 57 | 338 | 0.9 | 2.6 | 0.00 | 0.00 | 0.00 | 83 | 1007.6 |
| 20260505215405 | 57 | 349 | 0.9 | 6.1 | 0.00 | 0.00 | 0.00 | 83 | 1007.6 |
| 20260505214904 | 58 | 323 | 0.9 | 7.0 | 0.00 | 0.00 | 0.00 | 83 | 1007.5 |
| 20260505214405 | 60 | 321 | 1.7 | 10.4 | 0.00 | 0.00 | 0.00 | 83 | 1007.4 |
| 20260505213405 | 61 | 313 | 0.9 | 6.1 | 0.00 | 0.00 | 0.00 | 83 | 1007.2 |
| 20260505212404 | 61 | 255 | 0.0 | 0.0 | 0.00 | 0.00 | 0.00 | 83 | 1007.2 |
| 20260505211904 | 61 | 254 | 0.0 | 5.2 | 0.00 | 0.00 | 0.00 | 83 | 1007.1 |
| 20260505211404 | 61 | 180 | 0.0 | 5.2 | 0.00 | 0.00 | 0.00 | 83 | 1007.1 |
| 20260505210905 | 61 | 216 | 0.9 | 6.1 | 0.00 | 0.00 | 0.00 | 83 | 1007.0 |
| 20260505210404 | 61 | 246 | 0.9 | 5.2 | 0.00 | 0.00 | 0.00 | 83 | 1007.0 |
| 20260505205905 | 61 | 232 | 0.9 | 2.6 | 0.00 | 0.00 | 0.00 | 83 | 1007.0 |
| 20260505204904 | 61 | 192 | 0.9 | 5.2 | 0.00 | 0.00 | 0.00 | 83 | 1007.1 |
| 20260505204404 | 61 | 180 | 0.0 | 1.7 | 0.00 | 0.00 | 0.00 | 83 | 1007.2 |
| 20260505203904 | 61 | 250 | 0.9 | 4.3 | 0.00 | 0.00 | 0.00 | 83 | 1007.2 |
| 20260505203404 | 62 | 210 | 0.9 | 5.2 | 0.00 | 0.00 | 0.00 | 83 | 1007.3 |
| 20260505202905 | 62 | 210 | 1.7 | 6.1 | 0.00 | 0.00 | 0.00 | 83 | 1007.3 |
| 20260505201904 | 62 | 169 | 0.9 | 4.3 | 0.00 | 0.00 | 0.00 | 83 | 1007.5 |
| 20260505201404 | 62 | 171 | 0.0 | 0.0 | 0.00 | 0.00 | 0.00 | 83 | 1007.5 |
| 20260505200905 | 62 | 236 | 0.9 | 4.3 | 0.00 | 0.00 | 0.00 | 83 | 1007.3 |
| 20260505200404 | 62 | 179 | 0.0 | 5.2 | 0.00 | 0.00 | 0.00 | 83 | 1007.3 |
| 20260505195905 | 63 | 168 | 0.0 | 0.9 | 0.00 | 0.00 | 0.00 | 83 | 1007.3 |
| 20260505195405 | 62 | 178 | 0.0 | 0.0 | 0.00 | 0.00 | 0.00 | 83 | 1007.3 |
| 20260505194904 | 62 | 178 | 0.0 | 4.3 | 0.00 | 0.00 | 0.00 | 83 | 1007.3 |
| 20260505194404 | 62 | 176 | 0.0 | 2.6 | 0.00 | 0.00 | 0.00 | 83 | 1007.3 |
| 20260505193904 | 63 | 189 | 0.0 | 0.0 | 0.00 | 0.00 | 0.00 | 83 | 1007.5 |
| 20260505193404 | 63 | 144 | 0.9 | 5.2 | 0.00 | 0.00 | 0.00 | 83 | 1007.6 |
| 20260505192905 | 63 | 227 | 0.0 | 2.6 | 0.00 | 0.00 | 0.00 | 83 | 1007.7 |
| 20260505192404 | 63 | 160 | 0.9 | 2.6 | 0.00 | 0.00 | 0.00 | 83 | 1007.7 |
| 20260505191904 | 63 | 189 | 1.7 | 5.2 | 0.00 | 0.00 | 0.00 | 83 | 1007.7 |
| 20260505191405 | 63 | 162 | 1.7 | 7.0 | 0.00 | 0.00 | 0.00 | 83 | 1007.6 |
| 20260505190904 | 62 | 165 | 1.7 | 5.2 | 0.00 | 0.00 | 0.00 | 83 | 1007.7 |
| 20260505190405 | 62 | 155 | 1.7 | 6.1 | 0.00 | 0.00 | 0.00 | 83 | 1007.9 |
| 20260505184904 | 62 | 208 | 0.9 | 5.2 | 0.00 | 0.00 | 0.00 | 83 | 1008.3 |
| 20260505184404 | 62 | 186 | 0.9 | 5.2 | 0.00 | 0.00 | 0.00 | 83 | 1008.4 |
| 20260505183905 | 62 | 289 | 0.0 | 4.3 | 0.00 | 0.00 | 0.00 | 83 | 1008.3 |
| 20260505182905 | 62 | 206 | 0.9 | 4.3 | 0.00 | 0.00 | 0.00 | 83 | 1008.4 |
| 20260505182404 | 62 | 254 | 1.7 | 7.0 | 0.00 | 0.00 | 0.00 | 83 | 1008.4 |
| 20260505181904 | 62 | 152 | 0.9 | 7.0 | 0.00 | 0.00 | 0.00 | 83 | 1008.4 |
| 20260505181404 | 62 | 208 | 1.7 | 6.1 | 0.00 | 0.00 | 0.00 | 83 | 1008.3 |
| 20260505180904 | 62 | 140 | 0.9 | 7.0 | 0.00 | 0.00 | 0.00 | 83 | 1008.4 |
| 20260505180404 | 62 | 185 | 1.7 | 7.8 | 0.00 | 0.00 | 0.00 | 83 | 1008.4 |
| 20260505175904 | 62 | 198 | 1.7 | 7.8 | 0.00 | 0.00 | 0.00 | 83 | 1008.4 |
| 20260505175404 | 61 | 193 | 1.7 | 5.2 | 0.00 | 0.00 | 0.00 | 83 | 1008.5 |
| 20260505174905 | 61 | 220 | 1.7 | 6.1 | 0.00 | 0.00 | 0.00 | 83 | 1008.6 |
| 20260505174404 | 61 | 198 | 2.6 | 7.0 | 0.00 | 0.00 | 0.00 | 83 | 1008.6 |
| 20260505173904 | 61 | 149 | 0.9 | 5.2 | 0.00 | 0.00 | 0.00 | 83 | 1008.6 |
| 20260505173404 | 60 | 174 | 1.7 | 6.1 | 0.00 | 0.00 | 0.00 | 83 | 1008.8 |
| 20260505172905 | 60 | 148 | 0.9 | 6.1 | 0.00 | 0.00 | 0.00 | 83 | 1008.9 |
| 20260505172404 | 60 | 213 | 0.0 | 0.9 | 0.00 | 0.00 | 0.00 | 83 | 1008.9 |
| 20260505171904 | 60 | 155 | 1.7 | 6.1 | 0.00 | 0.00 | 0.00 | 83 | 1008.9 |
| 20260505171404 | 60 | 176 | 0.0 | 0.0 | 0.00 | 0.00 | 0.00 | 83 | 1008.9 |
| 20260505170904 | 60 | 185 | 0.0 | 0.0 | 0.00 | 0.00 | 0.00 | 83 | 1008.9 |
| 20260505170404 | 60 | 158 | 0.0 | 4.3 | 0.00 | 0.00 | 0.00 | 83 | 1008.8 |
| 20260505165904 | 60 | 166 | 0.0 | 4.3 | 0.00 | 0.00 | 0.00 | 83 | 1008.8 |
| 20260505164904 | 60 | 188 | 0.9 | 5.2 | 0.00 | 0.00 | 0.00 | 82 | 1008.9 |
| 20260505164405 | 60 | 175 | 0.9 | 6.1 | 0.00 | 0.00 | 0.00 | 82 | 1009.1 |
| 20260505163404 | 60 | 168 | 1.7 | 7.8 | 0.00 | 0.00 | 0.00 | 82 | 1009.1 |
| 20260505162904 | 60 | 183 | 0.0 | 6.1 | 0.00 | 0.00 | 0.00 | 82 | 1009.1 |
| 20260505162404 | 60 | 190 | 2.6 | 8.7 | 0.00 | 0.00 | 0.00 | 82 | 1009.1 |
| 20260505161904 | 60 | 152 | 4.3 | 10.4 | 0.00 | 0.00 | 0.00 | 82 | 1009.1 |
| 20260505161405 | 60 | 171 | 1.7 | 5.2 | 0.00 | 0.00 | 0.00 | 82 | 1009.1 |
| 20260505160904 | 60 | 148 | 0.9 | 6.1 | 0.00 | 0.00 | 0.00 | 82 | 1009.2 |
| 20260505160404 | 60 | 158 | 0.0 | 0.0 | 0.00 | 0.00 | 0.00 | 82 | 1009.1 |
| 20260505152904 | 60 | 187 | 0.0 | 0.0 | 0.00 | 0.00 | 0.00 | 81 | 1009.4 |
| 20260505151404 | 60 | 256 | 0.9 | 4.3 | 0.00 | 0.00 | 0.00 | 80 | 1009.7 |
| 20260505150904 | 60 | 234 | 1.7 | 7.8 | 0.00 | 0.00 | 0.00 | 79 | 1009.7 |
| 20260505150404 | 61 | 245 | 1.7 | 6.1 | 0.00 | 0.00 | 0.00 | 78 | 1009.7 |
| 20260505140404 | 65 | 140 | 0.0 | 0.0 | 0.00 | 0.00 | 0.00 | 64 | 1008.1 |
| 20260505124904 | 64 | 165 | 0.0 | 0.0 | 0.00 | 0.00 | 0.00 | 63 | 1008.0 |
| 20260505124404 | 64 | 165 | 0.0 | 0.0 | 0.00 | 0.00 | 0.00 | 64 | 1008.0 |
| 20260505123904 | 64 | 175 | 0.0 | 0.0 | 0.00 | 0.00 | 0.00 | 64 | 1007.9 |
| 20260505123403 | 64 | 149 | 0.0 | 0.0 | 0.00 | 0.00 | 0.00 | 64 | 1007.8 |
| 20260505122404 | 64 | 147 | 0.0 | 0.0 | 0.00 | 0.00 | 0.00 | 65 | 1007.9 |
| 20260505121903 | 64 | 144 | 0.0 | 0.0 | 0.00 | 0.00 | 0.00 | 65 | 1007.8 |
| 20260505121404 | 63 | 144 | 0.0 | 0.0 | 0.00 | 0.00 | 0.00 | 65 | 1007.9 |
| 20260505120904 | 63 | 144 | 0.0 | 0.0 | 0.00 | 0.00 | 0.00 | 65 | 1008.0 |
| 20260505120403 | 63 | 144 | 0.0 | 0.0 | 0.00 | 0.00 | 0.00 | 65 | 1008.0 |
| 20260505115904 | 63 | 144 | 0.0 | 0.0 | 0.00 | 0.00 | 0.00 | 65 | 1008.0 |
| 20260505115404 | 64 | 144 | 0.0 | 0.0 | 0.00 | 0.00 | 0.00 | 64 | 1008.0 |
| 20260505114904 | 64 | 144 | 0.0 | 0.0 | 0.00 | 0.00 | 0.00 | 64 | 1008.0 |
| 20260505114403 | 64 | 144 | 0.0 | 0.0 | 0.00 | 0.00 | 0.00 | 64 | 1007.9 |
| 20260505113904 | 64 | 144 | 0.0 | 0.0 | 0.00 | 0.00 | 0.00 | 63 | 1007.8 |
| 20260505113404 | 64 | 144 | 0.0 | 0.0 | 0.00 | 0.00 | 0.00 | 63 | 1007.9 |
| 20260505112904 | 64 | 144 | 0.0 | 0.0 | 0.00 | 0.00 | 0.00 | 63 | 1007.8 |
| 20260505112403 | 64 | 144 | 0.0 | 0.0 | 0.00 | 0.00 | 0.00 | 62 | 1007.7 |
| 20260505111904 | 64 | 143 | 0.0 | 0.0 | 0.00 | 0.00 | 0.00 | 62 | 1007.5 |
| 20260505110404 | 64 | 142 | 0.0 | 0.0 | 0.00 | 0.00 | 0.00 | 61 | 1007.4 |
| 20260505101404 | 65 | 221 | 0.0 | 0.0 | 0.00 | 0.00 | 0.00 | 60 | 1007.3 |
| 20260505100903 | 65 | 220 | 0.0 | 0.9 | 0.00 | 0.00 | 0.00 | 60 | 1007.2 |
| 20260505095903 | 65 | 190 | 1.7 | 7.0 | 0.00 | 0.00 | 0.00 | 60 | 1007.0 |
| 20260505095403 | 65 | 173 | 0.0 | 7.0 | 0.00 | 0.00 | 0.00 | 60 | 1007.0 |
| 20260505094904 | 65 | 198 | 0.0 | 0.0 | 0.00 | 0.00 | 0.00 | 60 | 1007.1 |
| 20260505094404 | 65 | 178 | 0.0 | 0.0 | 0.00 | 0.00 | 0.00 | 60 | 1007.1 |
| 20260505093903 | 65 | 171 | 0.0 | 0.0 | 0.00 | 0.00 | 0.00 | 60 | 1007.1 |
| 20260505092903 | 65 | 199 | 0.0 | 0.0 | 0.00 | 0.00 | 0.00 | 60 | 1007.3 |
| 20260505091903 | 65 | 171 | 0.0 | 0.0 | 0.00 | 0.00 | 0.00 | 60 | 1007.3 |
| 20260505090405 | 64 | 155 | 0.0 | 0.0 | 0.00 | 0.00 | 0.00 | 61 | 1007.4 |
| 20260505085905 | 64 | 201 | 0.0 | 0.0 | 0.00 | 0.00 | 0.00 | 61 | 1007.3 |
| 20260505085405 | 64 | 250 | 0.9 | 8.7 | 0.00 | 0.00 | 0.00 | 61 | 1007.3 |
| 20260505084905 | 64 | 164 | 0.0 | 0.0 | 0.00 | 0.00 | 0.00 | 61 | 1007.2 |
| 20260505084405 | 64 | 233 | 0.9 | 6.1 | 0.00 | 0.00 | 0.00 | 61 | 1007.2 |
| 20260505083905 | 65 | 188 | 0.0 | 1.7 | 0.00 | 0.00 | 0.00 | 60 | 1007.2 |
| 20260505083405 | 65 | 206 | 0.0 | 0.9 | 0.00 | 0.00 | 0.00 | 60 | 1007.2 |
| 20260505082905 | 65 | 243 | 0.0 | 0.0 | 0.00 | 0.00 | 0.00 | 60 | 1007.3 |
| 20260505081905 | 65 | 231 | 0.0 | 2.6 | 0.00 | 0.00 | 0.00 | 59 | 1007.2 |
| 20260505080405 | 65 | 179 | 0.0 | 0.9 | 0.00 | 0.00 | 0.00 | 58 | 1007.1 |
| 20260505075905 | 65 | 217 | 0.9 | 7.0 | 0.00 | 0.00 | 0.00 | 58 | 1007.1 |
| 20260505075405 | 65 | 229 | 1.7 | 8.7 | 0.00 | 0.00 | 0.00 | 58 | 1007.0 |
| 20260505074905 | 66 | 174 | 1.7 | 7.8 | 0.00 | 0.00 | 0.00 | 57 | 1007.1 |
| 20260505074405 | 66 | 176 | 2.6 | 7.0 | 0.00 | 0.00 | 0.00 | 57 | 1007.1 |
| 20260505073905 | 66 | 166 | 0.0 | 8.7 | 0.00 | 0.00 | 0.00 | 57 | 1007.2 |
| 20260505073405 | 66 | 168 | 0.9 | 8.7 | 0.00 | 0.00 | 0.00 | 57 | 1007.1 |
| 20260505072905 | 66 | 234 | 2.6 | 7.0 | 0.00 | 0.00 | 0.00 | 56 | 1007.1 |
| 20260505072405 | 66 | 187 | 1.7 | 7.0 | 0.00 | 0.00 | 0.00 | 56 | 1007.1 |
| 20260505071905 | 66 | 178 | 2.6 | 10.4 | 0.00 | 0.00 | 0.00 | 56 | 1007.2 |